Time,TemperatureF,DewpointF,PressureIn,WindDirection,WindDirectionDegrees,WindSpeedMPH,WindSpeedGustMPH,Humidity,HourlyPrecipIn,Conditions,Clouds,dailyrainin,SoftwareType,DateUTC
2013-05-28 00:02:00,51.1,50.7,22.08,South,180,3.0,4.0,99,0.00,,,0.02,meteohub,2013-05-28 05:02:00,
2013-05-28 00:07:00,51.1,50.7,22.07,SW,225,2.0,4.0,99,0.00,,,0.02,meteohub,2013-05-28 05:07:00,
2013-05-28 00:12:00,51.1,50.7,22.07,South,180,2.0,4.0,99,0.00,,,0.02,meteohub,2013-05-28 05:12:00,
2013-05-28 00:17:00,51.1,50.7,22.08,SW,225,3.0,4.0,99,0.00,,,0.02,meteohub,2013-05-28 05:17:00,
2013-05-28 00:22:00,51.1,50.7,22.08,SW,225,2.0,4.0,99,0.00,,,0.02,meteohub,2013-05-28 05:22:00,
2013-05-28 00:26:00,51.1,50.7,22.08,South,180,3.0,5.0,99,0.00,,,0.02,meteohub,2013-05-28 05:26:00,
2013-05-28 00:31:00,51.1,50.7,22.08,South,180,2.0,5.0,99,0.00,,,0.02,meteohub,2013-05-28 05:31:00,
2013-05-28 00:36:00,51.1,50.7,22.09,East,90,3.0,5.0,99,0.00,,,0.02,meteohub,2013-05-28 05:36:00,
2013-05-28 00:42:00,50.9,50.5,22.09,SW,225,5.0,5.0,99,0.00,,,0.02,meteohub,2013-05-28 05:42:00,
2013-05-28 00:47:00,50.9,50.5,22.08,SW,225,4.0,5.0,99,0.00,,,0.02,meteohub,2013-05-28 05:47:00,
2013-05-28 00:51:00,50.9,50.5,22.09,SW,225,2.0,5.0,99,0.00,,,0.02,meteohub,2013-05-28 05:51:00,
2013-05-28 00:57:00,50.9,50.5,22.09,SE,135,2.0,5.0,99,0.00,,,0.02,meteohub,2013-05-28 05:57:00,
2013-05-28 01:02:00,50.9,50.5,22.09,SE,135,2.0,8.0,99,0.00,,,0.02,meteohub,2013-05-28 06:02:00,
2013-05-28 01:07:00,50.9,50.5,22.09,SE,135,2.0,8.0,99,0.00,,,0.02,meteohub,2013-05-28 06:07:00,
2013-05-28 01:11:00,50.9,50.5,22.10,West,270,2.0,8.0,99,0.00,,,0.02,meteohub,2013-05-28 06:11:00,
2013-05-28 01:17:00,50.9,50.5,22.10,SW,225,2.0,5.0,99,0.00,,,0.02,meteohub,2013-05-28 06:17:00,
2013-05-28 01:22:00,50.9,50.5,22.10,South,180,4.0,5.0,99,0.00,,,0.02,meteohub,2013-05-28 06:22:00,
2013-05-28 01:27:00,50.9,50.5,22.11,West,270,4.0,5.0,99,0.00,,,0.02,meteohub,2013-05-28 06:27:00,
2013-05-28 01:32:00,50.9,50.5,22.11,SW,225,2.0,5.0,99,0.00,,,0.02,meteohub,2013-05-28 06:32:00,
2013-05-28 01:37:00,50.9,50.5,22.12,East,90,4.0,5.0,99,0.00,,,0.02,meteohub,2013-05-28 06:37:00,
2013-05-28 01:42:00,50.9,50.5,22.12,SW,225,4.0,5.0,99,0.00,,,0.02,meteohub,2013-05-28 06:42:00,
2013-05-28 01:47:00,50.9,50.5,22.12,East,90,3.0,5.0,99,0.00,,,0.02,meteohub,2013-05-28 06:47:00,
2013-05-28 01:52:00,50.9,50.5,22.12,South,180,4.0,5.0,99,0.00,,,0.02,meteohub,2013-05-28 06:52:00,
2013-05-28 01:57:00,50.9,50.5,22.12,East,90,2.0,5.0,99,0.00,,,0.02,meteohub,2013-05-28 06:57:00,
2013-05-28 02:02:00,50.7,50.4,22.12,East,90,4.0,5.0,99,0.00,,,0.02,meteohub,2013-05-28 07:02:00,
2013-05-28 02:07:00,50.7,50.4,22.12,SE,135,5.0,5.0,99,0.00,,,0.02,meteohub,2013-05-28 07:07:00,
2013-05-28 02:12:00,50.7,50.4,22.13,North,0,2.0,5.0,99,0.00,,,0.02,meteohub,2013-05-28 07:12:00,
2013-05-28 02:17:00,50.7,50.4,22.14,SE,135,3.0,5.0,99,0.00,,,0.02,meteohub,2013-05-28 07:17:00,
2013-05-28 02:22:00,50.7,50.4,22.14,SE,135,6.0,6.0,99,0.00,,,0.02,meteohub,2013-05-28 07:22:00,
2013-05-28 02:26:00,50.7,50.4,22.13,SE,135,4.0,8.0,99,0.00,,,0.02,meteohub,2013-05-28 07:26:00,
2013-05-28 02:32:00,50.7,50.4,22.14,SW,225,5.0,8.0,99,0.00,,,0.02,meteohub,2013-05-28 07:32:00,
2013-05-28 02:37:00,50.7,50.4,22.14,SE,135,5.0,6.0,99,0.00,,,0.02,meteohub,2013-05-28 07:37:00,
2013-05-28 02:42:00,50.7,50.4,22.14,South,180,4.0,6.0,99,0.00,,,0.02,meteohub,2013-05-28 07:42:00,
2013-05-28 02:46:00,50.7,50.4,22.14,West,270,3.0,8.0,99,0.00,,,0.02,meteohub,2013-05-28 07:46:00,
2013-05-28 02:51:00,50.7,50.4,22.15,ENE,68,2.0,8.0,99,0.00,,,0.02,meteohub,2013-05-28 07:51:00,
2013-05-28 02:56:00,50.7,50.4,22.14,East,90,2.0,8.0,99,0.00,,,0.02,meteohub,2013-05-28 07:56:00,
2013-05-28 03:02:00,50.7,50.4,22.14,WSW,248,4.0,5.0,99,0.00,,,0.02,meteohub,2013-05-28 08:02:00,
2013-05-28 03:06:00,50.7,50.4,22.14,WSW,248,4.0,5.0,99,0.00,,,0.02,meteohub,2013-05-28 08:06:00,
2013-05-28 03:11:00,50.7,50.4,22.14,West,270,2.0,5.0,99,0.00,,,0.02,meteohub,2013-05-28 08:11:00,
2013-05-28 03:16:00,50.7,50.4,22.14,East,90,4.0,4.0,99,0.00,,,0.02,meteohub,2013-05-28 08:16:00,
2013-05-28 03:22:00,50.7,50.4,22.14,West,270,5.0,5.0,99,0.00,,,0.02,meteohub,2013-05-28 08:22:00,
2013-05-28 03:27:00,50.7,50.4,22.14,SE,135,3.0,6.0,99,0.00,,,0.02,meteohub,2013-05-28 08:27:00,
2013-05-28 03:31:00,50.7,50.4,22.15,NW,315,2.0,6.0,99,0.00,,,0.02,meteohub,2013-05-28 08:31:00,
2013-05-28 03:36:00,50.7,50.4,22.15,West,270,2.0,6.0,99,0.00,,,0.02,meteohub,2013-05-28 08:36:00,
2013-05-28 03:42:00,50.7,50.4,22.14,North,0,4.0,8.0,99,0.00,,,0.02,meteohub,2013-05-28 08:42:00,
2013-05-28 03:47:00,50.7,50.4,22.15,South,180,3.0,8.0,99,0.00,,,0.02,meteohub,2013-05-28 08:47:00,
2013-05-28 03:51:00,50.7,50.4,22.14,SE,135,2.0,4.0,99,0.00,,,0.02,meteohub,2013-05-28 08:51:00,
2013-05-28 03:56:00,50.7,50.4,22.15,SW,225,4.0,4.0,99,0.00,,,0.02,meteohub,2013-05-28 08:56:00,
2013-05-28 04:02:00,50.7,50.4,22.15,WNW,293,2.0,7.0,99,0.00,,,0.02,meteohub,2013-05-28 09:02:00,
2013-05-28 04:07:00,50.7,50.4,22.15,West,270,3.0,7.0,99,0.00,,,0.02,meteohub,2013-05-28 09:07:00,
2013-05-28 04:12:00,50.7,50.4,22.15,SE,135,4.0,7.0,99,0.00,,,0.02,meteohub,2013-05-28 09:12:00,
2013-05-28 04:17:00,50.7,50.4,22.15,South,180,2.0,5.0,99,0.00,,,0.02,meteohub,2013-05-28 09:17:00,
2013-05-28 04:22:00,50.7,50.4,22.16,SE,135,2.0,5.0,99,0.00,,,0.02,meteohub,2013-05-28 09:22:00,
2013-05-28 04:27:00,50.7,50.4,22.16,SE,135,4.0,6.0,99,0.00,,,0.02,meteohub,2013-05-28 09:27:00,
2013-05-28 04:32:00,50.7,50.4,22.16,ENE,68,4.0,6.0,99,0.00,,,0.02,meteohub,2013-05-28 09:32:00,
2013-05-28 04:37:00,50.7,50.4,22.16,SW,225,4.0,7.0,99,0.00,,,0.02,meteohub,2013-05-28 09:37:00,
2013-05-28 04:42:00,50.7,50.4,22.17,East,90,4.0,7.0,99,0.00,,,0.02,meteohub,2013-05-28 09:42:00,
2013-05-28 04:47:00,50.7,50.4,22.17,East,90,4.0,6.0,99,0.00,,,0.02,meteohub,2013-05-28 09:47:00,
2013-05-28 04:52:00,50.9,50.5,22.17,North,0,2.0,6.0,99,0.00,,,0.02,meteohub,2013-05-28 09:52:00,
2013-05-28 04:57:00,50.9,50.5,22.17,SE,135,4.0,7.0,99,0.00,,,0.02,meteohub,2013-05-28 09:57:00,
2013-05-28 05:02:00,50.9,50.5,22.17,SE,135,2.0,7.0,99,0.00,,,0.02,meteohub,2013-05-28 10:02:00,
2013-05-28 05:07:00,50.9,50.5,22.17,SE,135,2.0,7.0,99,0.00,,,0.02,meteohub,2013-05-28 10:07:00,
2013-05-28 05:12:00,50.9,50.5,22.18,East,90,4.0,4.0,99,0.00,,,0.02,meteohub,2013-05-28 10:12:00,
2013-05-28 05:17:00,50.9,50.5,22.18,SW,225,7.0,7.0,99,0.00,,,0.02,meteohub,2013-05-28 10:17:00,
2013-05-28 05:22:00,50.9,50.5,22.18,South,180,2.0,7.0,99,0.00,,,0.02,meteohub,2013-05-28 10:22:00,
2013-05-28 05:27:00,50.9,50.5,22.18,ENE,68,2.0,7.0,99,0.00,,,0.02,meteohub,2013-05-28 10:27:00,
2013-05-28 05:32:00,50.9,50.5,22.18,South,180,4.0,7.0,99,0.00,,,0.02,meteohub,2013-05-28 10:32:00,
2013-05-28 05:37:00,50.9,50.5,22.18,East,90,4.0,5.0,99,0.01,,,0.04,meteohub,2013-05-28 10:37:00,
2013-05-28 05:42:00,50.9,50.5,22.18,East,90,7.0,8.0,99,0.01,,,0.04,meteohub,2013-05-28 10:42:00,
2013-05-28 05:47:00,50.9,50.5,22.19,NE,45,2.0,8.0,99,0.01,,,0.04,meteohub,2013-05-28 10:47:00,
2013-05-28 05:52:00,51.1,50.7,22.19,West,270,3.0,8.0,99,0.01,,,0.04,meteohub,2013-05-28 10:52:00,
2013-05-28 05:57:00,51.1,50.7,22.18,South,180,5.0,8.0,99,0.01,,,0.04,meteohub,2013-05-28 10:57:00,
2013-05-28 06:02:00,51.1,50.7,22.18,West,270,2.0,8.0,99,0.01,,,0.04,meteohub,2013-05-28 11:02:00,
2013-05-28 06:07:00,51.1,50.7,22.18,SW,225,3.0,5.0,99,0.01,,,0.04,meteohub,2013-05-28 11:07:00,
2013-05-28 06:12:00,51.1,50.7,22.17,SE,135,2.0,5.0,99,0.01,,,0.04,meteohub,2013-05-28 11:12:00,
2013-05-28 06:16:00,51.1,50.7,22.18,South,180,8.0,8.0,99,0.01,,,0.04,meteohub,2013-05-28 11:16:00,
2013-05-28 06:22:00,51.1,50.7,22.17,SW,225,1.0,8.0,99,0.01,,,0.04,meteohub,2013-05-28 11:22:00,
2013-05-28 06:27:00,51.1,50.7,22.17,SE,135,2.0,8.0,99,0.01,,,0.04,meteohub,2013-05-28 11:27:00,
2013-05-28 06:32:00,51.3,50.9,22.17,SE,135,2.0,8.0,99,0.00,,,0.04,meteohub,2013-05-28 11:32:00,
2013-05-28 06:37:00,51.3,50.9,22.17,South,180,2.0,5.0,99,0.01,,,0.05,meteohub,2013-05-28 11:37:00,
2013-05-28 06:41:00,51.3,50.9,22.17,East,90,2.0,4.0,99,0.01,,,0.05,meteohub,2013-05-28 11:41:00,
2013-05-28 06:46:00,51.3,50.9,22.17,South,180,2.0,4.0,99,0.01,,,0.05,meteohub,2013-05-28 11:46:00,
2013-05-28 06:51:00,51.3,50.9,22.17,West,270,3.0,4.0,99,0.01,,,0.05,meteohub,2013-05-28 11:51:00,
2013-05-28 06:56:00,51.4,51.1,22.17,North,0,3.0,4.0,99,0.01,,,0.05,meteohub,2013-05-28 11:56:00,
2013-05-28 07:02:00,51.4,51.1,22.17,South,180,2.0,4.0,99,0.01,,,0.05,meteohub,2013-05-28 12:02:00,
2013-05-28 07:06:00,51.4,51.1,22.17,South,180,2.0,4.0,99,0.01,,,0.05,meteohub,2013-05-28 12:06:00,
2013-05-28 07:11:00,51.4,51.1,22.18,SW,225,5.0,5.0,99,0.01,,,0.05,meteohub,2013-05-28 12:11:00,
2013-05-28 07:17:00,51.4,51.1,22.18,SE,135,2.0,5.0,99,0.01,,,0.05,meteohub,2013-05-28 12:17:00,
2013-05-28 07:22:00,51.4,51.1,22.18,NE,45,2.0,5.0,99,0.02,,,0.06,meteohub,2013-05-28 12:22:00,
2013-05-28 07:27:00,51.4,51.1,22.19,West,270,4.0,5.0,99,0.02,,,0.06,meteohub,2013-05-28 12:27:00,
2013-05-28 07:31:00,51.4,51.1,22.19,SW,225,7.0,7.0,99,0.01,,,0.06,meteohub,2013-05-28 12:31:00,
2013-05-28 07:36:00,51.4,51.1,22.19,North,0,1.0,7.0,99,0.01,,,0.06,meteohub,2013-05-28 12:36:00,
2013-05-28 07:41:00,51.4,51.1,22.19,NW,315,3.0,7.0,99,0.01,,,0.06,meteohub,2013-05-28 12:41:00,
2013-05-28 07:46:00,51.4,51.1,22.20,South,180,4.0,7.0,99,0.01,,,0.06,meteohub,2013-05-28 12:46:00,
2013-05-28 07:51:00,51.4,51.1,22.21,South,180,5.0,6.0,99,0.01,,,0.06,meteohub,2013-05-28 12:51:00,
2013-05-28 07:56:00,51.6,51.3,22.22,SE,135,3.0,6.0,99,0.01,,,0.06,meteohub,2013-05-28 12:56:00,
2013-05-28 08:02:00,51.6,51.3,22.22,East,90,5.0,7.0,99,0.01,,,0.06,meteohub,2013-05-28 13:02:00,
2013-05-28 08:07:00,51.6,51.3,22.22,NE,45,4.0,8.0,99,0.01,,,0.06,meteohub,2013-05-28 13:07:00,
2013-05-28 08:12:00,51.6,51.3,22.23,East,90,7.0,8.0,99,0.01,,,0.06,meteohub,2013-05-28 13:12:00,
2013-05-28 08:17:00,51.8,51.3,22.23,SE,135,8.0,9.0,98,0.01,,,0.06,meteohub,2013-05-28 13:17:00,
2013-05-28 08:22:00,51.8,51.3,22.23,South,180,8.0,10.0,98,0.00,,,0.06,meteohub,2013-05-28 13:22:00,
2013-05-28 08:27:00,52.0,51.4,22.22,ENE,68,2.0,10.0,98,0.00,,,0.06,meteohub,2013-05-28 13:27:00,
2013-05-28 08:32:00,52.0,51.4,22.20,South,180,4.0,10.0,98,0.00,,,0.06,meteohub,2013-05-28 13:32:00,
2013-05-28 08:37:00,52.0,51.4,22.19,West,270,7.0,10.0,98,0.01,,,0.07,meteohub,2013-05-28 13:37:00,
2013-05-28 08:42:00,52.0,51.4,22.19,NW,315,6.0,7.0,98,0.01,,,0.07,meteohub,2013-05-28 13:42:00,
2013-05-28 08:47:00,52.0,51.4,22.19,SE,135,4.0,7.0,98,0.01,,,0.07,meteohub,2013-05-28 13:47:00,
2013-05-28 08:52:00,52.3,51.8,22.19,West,270,2.0,7.0,98,0.01,,,0.07,meteohub,2013-05-28 13:52:00,
2013-05-28 08:57:00,52.3,51.8,22.20,SE,135,2.0,6.0,98,0.02,,,0.08,meteohub,2013-05-28 13:57:00,
2013-05-28 09:02:00,52.9,52.3,22.21,SE,135,3.0,4.0,98,0.02,,,0.08,meteohub,2013-05-28 14:02:00,
2013-05-28 09:07:00,53.4,52.9,22.21,SE,135,3.0,4.0,98,0.02,,,0.08,meteohub,2013-05-28 14:07:00,
2013-05-28 09:12:00,54.1,53.2,22.21,South,180,1.0,3.0,97,0.04,,,0.09,meteohub,2013-05-28 14:12:00,
2013-05-28 09:17:00,54.0,53.1,22.21,West,270,2.0,4.0,97,0.04,,,0.09,meteohub,2013-05-28 14:17:00,
2013-05-28 09:22:00,54.1,53.2,22.21,East,90,2.0,4.0,97,0.04,,,0.09,meteohub,2013-05-28 14:22:00,
2013-05-28 09:27:00,54.3,53.4,22.21,SE,135,2.0,4.0,97,0.04,,,0.09,meteohub,2013-05-28 14:27:00,
2013-05-28 09:32:00,54.1,53.2,22.22,North,0,1.0,4.0,97,0.04,,,0.09,meteohub,2013-05-28 14:32:00,
2013-05-28 09:37:00,54.1,53.2,22.22,South,180,2.0,3.0,97,0.02,,,0.09,meteohub,2013-05-28 14:37:00,
2013-05-28 09:42:00,54.1,53.2,22.22,East,90,2.0,3.0,97,0.02,,,0.09,meteohub,2013-05-28 14:42:00,
2013-05-28 09:47:00,54.3,53.4,22.23,NE,45,2.0,3.0,97,0.02,,,0.09,meteohub,2013-05-28 14:47:00,
2013-05-28 09:52:00,54.3,53.4,22.23,SE,135,2.0,4.0,97,0.01,,,0.09,meteohub,2013-05-28 14:52:00,
2013-05-28 09:57:00,54.7,53.8,22.23,SE,135,4.0,4.0,97,0.01,,,0.09,meteohub,2013-05-28 14:57:00,
2013-05-28 10:02:00,54.3,53.4,22.23,East,90,4.0,8.0,97,0.01,,,0.09,meteohub,2013-05-28 15:02:00,
2013-05-28 10:07:00,54.5,53.6,22.23,ESE,113,6.0,8.0,97,0.00,,,0.09,meteohub,2013-05-28 15:07:00,
2013-05-28 10:12:00,54.9,54.0,22.23,East,90,2.0,8.0,97,0.00,,,0.09,meteohub,2013-05-28 15:12:00,
2013-05-28 10:17:00,55.4,55.0,22.23,NE,45,3.0,6.0,99,0.00,,,0.09,meteohub,2013-05-28 15:17:00,
2013-05-28 10:22:00,55.6,55.2,22.22,SE,135,4.0,6.0,99,0.00,,,0.09,meteohub,2013-05-28 15:22:00,
2013-05-28 10:27:00,55.9,55.6,22.23,SW,225,4.0,8.0,99,0.00,,,0.09,meteohub,2013-05-28 15:27:00,
2013-05-28 10:32:00,56.3,55.9,22.24,East,90,4.0,8.0,99,0.00,,,0.09,meteohub,2013-05-28 15:32:00,
2013-05-28 10:37:00,56.7,56.3,22.22,West,270,3.0,8.0,99,0.00,,,0.09,meteohub,2013-05-28 15:37:00,
2013-05-28 10:42:00,56.3,55.9,22.22,South,180,3.0,6.0,99,0.00,,,0.09,meteohub,2013-05-28 15:42:00,
2013-05-28 10:47:00,56.3,55.9,22.22,SE,135,3.0,6.0,99,0.00,,,0.09,meteohub,2013-05-28 15:47:00,
2013-05-28 10:52:00,56.5,56.1,22.22,North,0,1.0,3.0,99,0.00,,,0.09,meteohub,2013-05-28 15:52:00,
2013-05-28 10:57:00,56.5,56.1,22.24,South,180,2.0,3.0,99,0.00,,,0.09,meteohub,2013-05-28 15:57:00,
2013-05-28 11:02:00,56.5,56.1,22.24,East,90,2.0,4.0,99,0.00,,,0.09,meteohub,2013-05-28 16:02:00,
2013-05-28 11:07:00,56.7,56.3,22.23,South,180,2.0,4.0,99,0.00,,,0.09,meteohub,2013-05-28 16:07:00,
2013-05-28 11:12:00,56.5,56.1,22.23,SE,135,4.0,4.0,99,0.00,,,0.09,meteohub,2013-05-28 16:12:00,
2013-05-28 11:17:00,56.5,56.1,22.24,SW,225,2.0,4.0,99,0.00,,,0.09,meteohub,2013-05-28 16:17:00,
2013-05-28 11:22:00,57.2,56.8,22.24,SE,135,5.0,5.0,99,0.00,,,0.09,meteohub,2013-05-28 16:22:00,
2013-05-28 11:27:00,57.4,57.0,22.23,SE,135,2.0,5.0,99,0.00,,,0.09,meteohub,2013-05-28 16:27:00,
2013-05-28 11:32:00,57.9,57.6,22.23,West,270,2.0,5.0,99,0.00,,,0.09,meteohub,2013-05-28 16:32:00,
2013-05-28 11:37:00,57.9,57.6,22.23,West,270,2.0,5.0,99,0.00,,,0.09,meteohub,2013-05-28 16:37:00,
2013-05-28 11:42:00,57.7,57.2,22.23,SE,135,3.0,4.0,98,0.00,,,0.09,meteohub,2013-05-28 16:42:00,
2013-05-28 11:47:00,58.1,57.6,22.23,East,90,2.0,4.0,98,0.00,,,0.09,meteohub,2013-05-28 16:47:00,
2013-05-28 11:52:00,58.1,57.2,22.23,East,90,4.0,4.0,97,0.00,,,0.09,meteohub,2013-05-28 16:52:00,
2013-05-28 11:57:00,58.1,57.2,22.23,East,90,4.0,6.0,97,0.00,,,0.09,meteohub,2013-05-28 16:57:00,
2013-05-28 12:02:00,58.1,57.0,22.22,SE,135,2.0,6.0,96,0.00,,,0.09,meteohub,2013-05-28 17:02:00,
2013-05-28 12:07:00,58.6,57.6,22.22,ESE,113,3.0,5.0,96,0.00,,,0.09,meteohub,2013-05-28 17:07:00,
2013-05-28 12:12:00,58.8,57.7,22.22,West,270,2.0,5.0,96,0.00,,,0.09,meteohub,2013-05-28 17:12:00,
2013-05-28 12:17:00,59.0,57.6,22.23,East,90,2.0,4.0,95,0.00,,,0.09,meteohub,2013-05-28 17:17:00,
2013-05-28 12:22:00,59.2,57.7,22.22,SE,135,4.0,4.0,95,0.00,,,0.09,meteohub,2013-05-28 17:22:00,
2013-05-28 12:27:00,59.0,57.2,22.22,South,180,4.0,4.0,94,0.00,,,0.09,meteohub,2013-05-28 17:27:00,
2013-05-28 12:32:00,59.2,57.4,22.22,South,180,2.0,4.0,94,0.00,,,0.09,meteohub,2013-05-28 17:32:00,
2013-05-28 12:37:00,59.9,58.1,22.22,NW,315,3.0,4.0,94,0.00,,,0.09,meteohub,2013-05-28 17:37:00,
2013-05-28 12:42:00,59.5,57.6,22.22,South,180,4.0,5.0,93,0.00,,,0.09,meteohub,2013-05-28 17:42:00,
2013-05-28 12:47:00,59.2,57.2,22.22,West,270,5.0,5.0,93,0.00,,,0.09,meteohub,2013-05-28 17:47:00,
2013-05-28 12:52:00,59.4,57.6,22.22,NW,315,5.0,5.0,94,0.00,,,0.09,meteohub,2013-05-28 17:52:00,
2013-05-28 12:57:00,59.4,57.6,22.22,South,180,6.0,6.0,94,0.00,,,0.09,meteohub,2013-05-28 17:57:00,
2013-05-28 13:02:00,59.2,57.2,22.22,West,270,6.0,6.0,93,0.00,,,0.09,meteohub,2013-05-28 18:02:00,
2013-05-28 13:07:00,59.0,57.2,22.22,SW,225,4.0,6.0,94,0.00,,,0.09,meteohub,2013-05-28 18:07:00,
2013-05-28 13:12:00,58.8,57.4,22.22,SW,225,2.0,8.0,95,0.00,,,0.09,meteohub,2013-05-28 18:12:00,
2013-05-28 13:17:00,59.4,57.9,22.22,WSW,248,2.0,8.0,95,0.00,,,0.09,meteohub,2013-05-28 18:17:00,
2013-05-28 13:22:00,59.4,57.9,22.23,SW,225,2.0,8.0,95,0.00,,,0.09,meteohub,2013-05-28 18:22:00,
2013-05-28 13:27:00,59.4,57.9,22.23,SW,225,2.0,6.0,95,0.00,,,0.09,meteohub,2013-05-28 18:27:00,
2013-05-28 13:32:00,59.4,57.6,22.23,SE,135,3.0,7.0,94,0.00,,,0.09,meteohub,2013-05-28 18:32:00,
2013-05-28 13:37:00,60.6,59.2,22.23,South,180,2.0,7.0,95,0.00,,,0.09,meteohub,2013-05-28 18:37:00,
2013-05-28 13:42:00,60.6,58.8,22.23,North,0,5.0,7.0,94,0.00,,,0.09,meteohub,2013-05-28 18:42:00,
2013-05-28 13:47:00,60.3,58.5,22.23,East,90,2.0,5.0,94,0.00,,,0.09,meteohub,2013-05-28 18:47:00,
2013-05-28 13:52:00,60.4,58.5,22.22,SW,225,2.0,6.0,93,0.00,,,0.09,meteohub,2013-05-28 18:52:00,
2013-05-28 13:57:00,60.3,58.3,22.22,North,0,2.0,6.0,93,0.00,,,0.09,meteohub,2013-05-28 18:57:00,
2013-05-28 14:02:00,61.2,59.2,22.22,SW,225,2.0,6.0,93,0.00,,,0.09,meteohub,2013-05-28 19:02:00,
2013-05-28 14:07:00,61.2,58.8,22.22,West,270,4.0,4.0,92,0.00,,,0.09,meteohub,2013-05-28 19:07:00,
2013-05-28 14:12:00,60.8,58.1,22.22,West,270,2.0,6.0,91,0.00,,,0.09,meteohub,2013-05-28 19:12:00,
2013-05-28 14:17:00,61.0,58.6,22.22,East,90,2.0,6.0,92,0.00,,,0.09,meteohub,2013-05-28 19:17:00,
2013-05-28 14:22:00,61.3,59.0,22.23,SE,135,4.0,6.0,92,0.00,,,0.09,meteohub,2013-05-28 19:22:00,
2013-05-28 14:27:00,61.5,58.8,22.22,SE,135,5.0,5.0,91,0.00,,,0.09,meteohub,2013-05-28 19:27:00,
2013-05-28 14:32:00,61.9,59.2,22.22,SE,135,4.0,6.0,91,0.00,,,0.09,meteohub,2013-05-28 19:32:00,
2013-05-28 14:37:00,61.9,59.0,22.22,SE,135,4.0,6.0,90,0.00,,,0.09,meteohub,2013-05-28 19:37:00,
2013-05-28 14:42:00,62.2,59.2,22.22,SE,135,3.0,6.0,90,0.00,,,0.09,meteohub,2013-05-28 19:42:00,
2013-05-28 14:47:00,62.6,59.0,22.22,SE,135,2.0,6.0,88,0.00,,,0.09,meteohub,2013-05-28 19:47:00,
2013-05-28 14:52:00,62.6,59.0,22.22,SE,135,2.0,6.0,88,0.00,,,0.09,meteohub,2013-05-28 19:52:00,
2013-05-28 14:57:00,63.0,59.4,22.22,North,0,2.0,5.0,88,0.00,,,0.09,meteohub,2013-05-28 19:57:00,
2013-05-28 15:02:00,63.5,59.9,22.23,West,270,3.0,4.0,88,0.00,,,0.09,meteohub,2013-05-28 20:02:00,
2013-05-28 15:07:00,63.1,59.5,22.23,East,90,3.0,4.0,88,0.00,,,0.09,meteohub,2013-05-28 20:07:00,
2013-05-28 15:12:00,62.8,58.8,22.23,SSW,203,2.0,4.0,87,0.00,,,0.09,meteohub,2013-05-28 20:12:00,
2013-05-28 15:17:00,62.2,59.0,22.23,SW,225,5.0,5.0,89,0.00,,,0.09,meteohub,2013-05-28 20:17:00,
2013-05-28 15:22:00,62.2,59.2,22.23,South,180,2.0,5.0,90,0.00,,,0.09,meteohub,2013-05-28 20:22:00,
2013-05-28 15:27:00,62.8,59.5,22.23,SE,135,2.0,5.0,89,0.00,,,0.09,meteohub,2013-05-28 20:27:00,
2013-05-28 15:32:00,63.7,60.4,22.23,SW,225,4.0,5.0,89,0.00,,,0.09,meteohub,2013-05-28 20:32:00,
2013-05-28 15:37:00,63.5,60.3,22.23,SE,135,3.0,5.0,89,0.00,,,0.09,meteohub,2013-05-28 20:37:00,
2013-05-28 15:42:00,64.2,61.0,22.23,SW,225,2.0,4.0,89,0.00,,,0.09,meteohub,2013-05-28 20:42:00,
2013-05-28 15:47:00,64.9,61.7,22.23,South,180,2.0,4.0,89,0.00,,,0.09,meteohub,2013-05-28 20:47:00,
2013-05-28 15:52:00,64.8,60.8,22.23,SE,135,2.0,4.0,87,0.00,,,0.09,meteohub,2013-05-28 20:52:00,
2013-05-28 15:57:00,64.8,60.8,22.23,SE,135,2.0,4.0,87,0.00,,,0.09,meteohub,2013-05-28 20:57:00,
2013-05-28 16:02:00,64.8,60.4,22.23,South,180,2.0,5.0,86,0.00,,,0.09,meteohub,2013-05-28 21:02:00,
2013-05-28 16:07:00,64.6,60.6,22.24,NW,315,3.0,5.0,87,0.00,,,0.09,meteohub,2013-05-28 21:07:00,
2013-05-28 16:11:00,64.6,60.6,22.23,West,270,0.0,5.0,87,0.00,,,0.09,meteohub,2013-05-28 21:11:00,
2013-05-28 16:16:00,64.8,60.8,22.23,South,180,2.0,4.0,87,0.00,,,0.09,meteohub,2013-05-28 21:16:00,
2013-05-28 16:21:00,64.6,60.6,22.23,East,90,2.0,4.0,87,0.00,,,0.09,meteohub,2013-05-28 21:21:00,
2013-05-28 16:26:00,64.8,60.8,22.23,East,90,3.0,4.0,87,0.00,,,0.09,meteohub,2013-05-28 21:26:00,
2013-05-28 16:31:00,64.4,60.4,22.23,East,90,4.0,4.0,87,0.00,,,0.09,meteohub,2013-05-28 21:31:00,
2013-05-28 16:36:00,64.0,60.1,22.24,SE,135,2.0,4.0,87,0.00,,,0.09,meteohub,2013-05-28 21:36:00,
2013-05-28 16:42:00,64.4,60.8,22.24,SE,135,4.0,4.0,88,0.00,,,0.09,meteohub,2013-05-28 21:42:00,
2013-05-28 16:47:00,64.2,60.6,22.23,East,90,5.0,5.0,88,0.00,,,0.09,meteohub,2013-05-28 21:47:00,
2013-05-28 16:52:00,63.7,60.1,22.23,SE,135,5.0,6.0,88,0.00,,,0.09,meteohub,2013-05-28 21:52:00,
2013-05-28 16:57:00,63.3,60.1,22.23,SE,135,5.0,6.0,89,0.00,,,0.09,meteohub,2013-05-28 21:57:00,
2013-05-28 17:02:00,63.1,59.9,22.23,SE,135,2.0,6.0,89,0.00,,,0.09,meteohub,2013-05-28 22:02:00,
2013-05-28 17:07:00,63.0,59.7,22.23,SW,225,2.0,5.0,89,0.00,,,0.09,meteohub,2013-05-28 22:07:00,
2013-05-28 17:12:00,63.3,60.3,22.23,South,180,3.0,5.0,90,0.00,,,0.09,meteohub,2013-05-28 22:12:00,
2013-05-28 17:17:00,63.7,60.6,22.23,SE,135,1.0,4.0,90,0.00,,,0.09,meteohub,2013-05-28 22:17:00,
2013-05-28 17:21:00,64.0,61.0,22.23,East,90,6.0,6.0,90,0.00,,,0.09,meteohub,2013-05-28 22:21:00,
2013-05-28 17:26:00,63.5,60.3,22.23,East,90,4.0,6.0,89,0.00,,,0.09,meteohub,2013-05-28 22:26:00,
2013-05-28 17:32:00,63.0,59.7,22.23,SE,135,4.0,6.0,89,0.00,,,0.09,meteohub,2013-05-28 22:32:00,
2013-05-28 17:37:00,62.8,59.7,22.23,SE,135,3.0,6.0,90,0.00,,,0.09,meteohub,2013-05-28 22:37:00,
2013-05-28 17:42:00,62.6,59.5,22.23,SE,135,4.0,5.0,90,0.00,,,0.09,meteohub,2013-05-28 22:42:00,
2013-05-28 17:47:00,62.2,59.9,22.23,SE,135,2.0,4.0,92,0.00,,,0.09,meteohub,2013-05-28 22:47:00,
2013-05-28 17:52:00,62.2,59.9,22.23,SE,135,4.0,4.0,92,0.00,,,0.09,meteohub,2013-05-28 22:52:00,
2013-05-28 17:57:00,62.4,60.4,22.22,East,90,4.0,4.0,93,0.00,,,0.09,meteohub,2013-05-28 22:57:00,
2013-05-28 18:02:00,62.4,60.4,22.22,SE,135,4.0,4.0,93,0.00,,,0.09,meteohub,2013-05-28 23:02:00,
2013-05-28 18:07:00,62.6,60.3,22.22,SE,135,4.0,4.0,92,0.00,,,0.09,meteohub,2013-05-28 23:07:00,
2013-05-28 18:11:00,62.4,60.4,22.22,East,90,4.0,5.0,93,0.00,,,0.09,meteohub,2013-05-28 23:11:00,
2013-05-28 18:16:00,62.2,60.3,22.22,East,90,5.0,5.0,93,0.00,,,0.09,meteohub,2013-05-28 23:16:00,
2013-05-28 18:21:00,62.1,60.1,22.22,East,90,4.0,5.0,93,0.00,,,0.09,meteohub,2013-05-28 23:21:00,
2013-05-28 18:26:00,62.1,60.1,22.22,SE,135,5.0,5.0,93,0.00,,,0.09,meteohub,2013-05-28 23:26:00,
2013-05-28 18:31:00,62.1,60.1,22.22,East,90,4.0,6.0,93,0.00,,,0.09,meteohub,2013-05-28 23:31:00,
2013-05-28 18:36:00,62.1,60.3,22.22,ESE,113,4.0,6.0,94,0.00,,,0.09,meteohub,2013-05-28 23:36:00,
2013-05-28 18:41:00,62.1,60.3,22.22,ESE,113,5.0,6.0,94,0.00,,,0.09,meteohub,2013-05-28 23:41:00,
2013-05-28 18:46:00,61.7,59.9,22.22,SE,135,4.0,6.0,94,0.00,,,0.09,meteohub,2013-05-28 23:46:00,
2013-05-28 18:51:00,61.7,59.9,22.22,SE,135,3.0,6.0,94,0.00,,,0.09,meteohub,2013-05-28 23:51:00,
2013-05-28 18:56:00,61.7,60.3,22.23,East,90,3.0,6.0,95,0.00,,,0.09,meteohub,2013-05-28 23:56:00,
2013-05-28 19:01:00,61.7,60.3,22.24,SE,135,4.0,4.0,95,0.00,,,0.09,meteohub,2013-05-29 00:01:00,
2013-05-28 19:06:00,61.5,60.1,22.25,SE,135,4.0,5.0,95,0.00,,,0.00,meteohub,2013-05-29 00:06:00,
2013-05-28 19:12:00,61.7,60.6,22.25,SE,135,7.0,7.0,96,0.00,,,0.00,meteohub,2013-05-29 00:12:00,
2013-05-28 19:17:00,61.5,60.4,22.25,East,90,4.0,7.0,96,0.00,,,0.00,meteohub,2013-05-29 00:17:00,
2013-05-28 19:22:00,61.5,60.4,22.25,SE,135,2.0,7.0,96,0.00,,,0.00,meteohub,2013-05-29 00:22:00,
2013-05-28 19:27:00,61.5,60.6,22.25,SE,135,2.0,7.0,97,0.00,,,0.00,meteohub,2013-05-29 00:27:00,
2013-05-28 19:32:00,61.3,60.4,22.25,SE,135,4.0,4.0,97,0.00,,,0.00,meteohub,2013-05-29 00:32:00,
2013-05-28 19:37:00,61.2,60.3,22.24,SE,135,4.0,5.0,97,0.00,,,0.00,meteohub,2013-05-29 00:37:00,
2013-05-28 19:42:00,61.0,60.1,22.26,SW,225,2.0,5.0,97,0.00,,,0.00,meteohub,2013-05-29 00:42:00,
2013-05-28 19:47:00,61.0,60.4,22.25,NW,315,1.0,5.0,98,0.00,,,0.00,meteohub,2013-05-29 00:47:00,
2013-05-28 19:52:00,61.2,60.6,22.24,South,180,2.0,5.0,98,0.00,,,0.00,meteohub,2013-05-29 00:52:00,
2013-05-28 19:57:00,61.2,60.6,22.24,West,270,3.0,5.0,98,0.00,,,0.00,meteohub,2013-05-29 00:57:00,
2013-05-28 20:02:00,61.2,60.6,22.24,South,180,1.0,4.0,98,0.00,,,0.00,meteohub,2013-05-29 01:02:00,
2013-05-28 20:07:00,61.2,60.6,22.24,West,270,0.0,4.0,98,0.00,,,0.00,meteohub,2013-05-29 01:07:00,
2013-05-28 20:12:00,61.0,60.4,22.24,SE,135,4.0,4.0,98,0.00,,,0.00,meteohub,2013-05-29 01:12:00,
2013-05-28 20:17:00,60.8,60.3,22.24,SE,135,2.0,4.0,98,0.00,,,0.00,meteohub,2013-05-29 01:17:00,
2013-05-28 20:22:00,60.6,60.3,22.24,East,90,1.0,4.0,99,0.00,,,0.00,meteohub,2013-05-29 01:22:00,
2013-05-28 20:27:00,60.3,59.9,22.25,SE,135,0.0,4.0,99,0.00,,,0.00,meteohub,2013-05-29 01:27:00,
2013-05-28 20:32:00,60.3,59.9,22.25,South,180,2.0,4.0,99,0.00,,,0.00,meteohub,2013-05-29 01:32:00,
2013-05-28 20:37:00,60.1,59.7,22.24,South,180,0.0,4.0,99,0.00,,,0.00,meteohub,2013-05-29 01:37:00,
2013-05-28 20:42:00,60.1,59.7,22.25,West,270,0.0,4.0,99,0.00,,,0.00,meteohub,2013-05-29 01:42:00,
2013-05-28 20:46:00,59.9,59.5,22.25,West,270,0.0,2.0,99,0.00,,,0.00,meteohub,2013-05-29 01:46:00,
2013-05-28 20:51:00,59.7,59.4,22.24,NW,315,0.0,2.0,99,0.00,,,0.00,meteohub,2013-05-29 01:51:00,
2013-05-28 20:57:00,59.4,59.0,22.22,NNE,23,0.0,2.0,99,0.00,,,0.00,meteohub,2013-05-29 01:57:00,
2013-05-28 21:02:00,59.4,59.0,22.21,NE,45,0.0,0.0,99,0.00,,,0.00,meteohub,2013-05-29 02:02:00,
2013-05-28 21:07:00,59.5,59.2,22.21,NE,45,4.0,0.0,99,0.00,,,0.00,meteohub,2013-05-29 02:07:00,
2013-05-28 21:12:00,59.7,59.4,22.21,East,90,4.0,4.0,99,0.00,,,0.00,meteohub,2013-05-29 02:12:00,
2013-05-28 21:17:00,59.9,59.5,22.21,East,90,4.0,5.0,99,0.00,,,0.00,meteohub,2013-05-29 02:17:00,
2013-05-28 21:22:00,59.9,59.5,22.20,SE,135,2.0,5.0,99,0.00,,,0.00,meteohub,2013-05-29 02:22:00,
2013-05-28 21:27:00,59.9,59.5,22.21,West,270,2.0,5.0,99,0.00,,,0.00,meteohub,2013-05-29 02:27:00,
2013-05-28 21:32:00,59.7,59.4,22.21,West,270,1.0,4.0,99,0.00,,,0.00,meteohub,2013-05-29 02:32:00,
2013-05-28 21:37:00,59.7,59.4,22.22,West,270,0.0,3.0,99,0.00,,,0.00,meteohub,2013-05-29 02:37:00,
2013-05-28 21:42:00,59.7,59.4,22.22,South,180,0.0,3.0,99,0.00,,,0.00,meteohub,2013-05-29 02:42:00,
2013-05-28 21:47:00,59.7,59.4,22.21,West,270,0.0,2.0,99,0.00,,,0.00,meteohub,2013-05-29 02:47:00,
2013-05-28 21:52:00,59.7,59.4,22.21,NE,45,0.0,0.0,99,0.00,,,0.00,meteohub,2013-05-29 02:52:00,
2013-05-28 21:57:00,59.7,59.4,22.20,East,90,0.0,0.0,99,0.00,,,0.00,meteohub,2013-05-29 02:57:00,
2013-05-28 22:02:00,59.7,59.4,22.21,East,90,0.0,0.0,99,0.00,,,0.00,meteohub,2013-05-29 03:02:00,
2013-05-28 22:07:00,59.7,59.4,22.20,East,90,0.0,0.0,99,0.00,,,0.00,meteohub,2013-05-29 03:07:00,
2013-05-28 22:12:00,59.7,59.4,22.20,SE,135,0.0,0.0,99,0.00,,,0.00,meteohub,2013-05-29 03:12:00,
2013-05-28 22:17:00,59.7,59.4,22.20,NE,45,1.0,2.0,99,0.00,,,0.00,meteohub,2013-05-29 03:17:00,
2013-05-28 22:22:00,59.7,59.4,22.20,SW,225,0.0,2.0,99,0.00,,,0.00,meteohub,2013-05-29 03:22:00,
2013-05-28 22:27:00,59.7,59.4,22.20,NE,45,0.0,2.0,99,0.00,,,0.00,meteohub,2013-05-29 03:27:00,
2013-05-28 22:32:00,59.7,59.4,22.20,East,90,0.0,2.0,99,0.00,,,0.00,meteohub,2013-05-29 03:32:00,
2013-05-28 22:37:00,59.7,59.4,22.20,East,90,0.0,0.0,99,0.00,,,0.00,meteohub,2013-05-29 03:37:00,
2013-05-28 22:42:00,59.7,59.4,22.19,South,180,0.0,0.0,99,0.00,,,0.00,meteohub,2013-05-29 03:42:00,
2013-05-28 22:47:00,59.7,59.4,22.19,SW,225,0.0,0.0,99,0.00,,,0.00,meteohub,2013-05-29 03:47:00,
2013-05-28 22:52:00,59.7,59.4,22.19,SW,225,0.0,0.0,99,0.00,,,0.00,meteohub,2013-05-29 03:52:00,
2013-05-28 22:57:00,59.7,59.4,22.19,SW,225,0.0,0.0,99,0.00,,,0.00,meteohub,2013-05-29 03:57:00,
2013-05-28 23:01:00,59.7,59.4,22.19,SW,225,0.0,0.0,99,0.00,,,0.00,meteohub,2013-05-29 04:01:00,
2013-05-28 23:02:00,59.7,59.4,22.19,SW,225,0.0,0.0,99,0.00,,,0.00,meteohub,2013-05-29 04:02:00,
2013-05-28 23:07:00,59.7,59.4,22.19,SW,225,0.0,0.0,99,0.00,,,0.00,meteohub,2013-05-29 04:07:00,
2013-05-28 23:12:00,59.5,59.2,22.19,NE,45,0.0,2.0,99,0.00,,,0.00,meteohub,2013-05-29 04:12:00,
2013-05-28 23:17:00,59.5,59.2,22.19,West,270,0.0,2.0,99,0.00,,,0.00,meteohub,2013-05-29 04:17:00,
2013-05-28 23:22:00,59.5,59.2,22.19,West,270,0.0,2.0,99,0.00,,,0.00,meteohub,2013-05-29 04:22:00,
2013-05-28 23:27:00,59.5,59.2,22.19,West,270,0.0,2.0,99,0.00,,,0.00,meteohub,2013-05-29 04:27:00,
2013-05-28 23:32:00,59.5,59.2,22.19,NE,45,0.0,2.0,99,0.00,,,0.00,meteohub,2013-05-29 04:32:00,
2013-05-28 23:37:00,59.5,59.2,22.19,SW,225,0.0,2.0,99,0.00,,,0.00,meteohub,2013-05-29 04:37:00,
2013-05-28 23:42:00,59.5,59.2,22.19,SW,225,0.0,1.0,99,0.00,,,0.00,meteohub,2013-05-29 04:42:00,
2013-05-28 23:47:00,59.5,59.2,22.19,West,270,0.0,0.0,99,0.00,,,0.00,meteohub,2013-05-29 04:47:00,
2013-05-28 23:52:00,59.5,59.2,22.19,West,270,0.0,0.0,99,0.00,,,0.00,meteohub,2013-05-29 04:52:00,
2013-05-28 23:57:00,59.5,59.2,22.18,NW,315,0.0,0.0,99,0.00,,,0.00,meteohub,2013-05-29 04:57:00,